Flag for Switzerland Weather past 2 weeks in Bern, Bern, Switzerland

50 °F

Partly cloudy.

Feels Like: 49 °F
Forecast: 42 / 48 °F
Wind: 3 mph from North

Location: Bern / Belp

Current Time: Nov 29, 2015 at 11:12:29 PM

Latest Report: Nov 29, 2015 at 10:20 PM

Visibility: N/A

Pressure: 30.36 "Hg (28.47 "Hg at 533m altitude)

Humidity: 62%

Dew point: 37 °F

Location of BernLocation

Historic Weather in Bern — Graph


Bern temperature yesterday

Maximum temperature yesterday: 39 °F (at 3:20 PM)
Minimum temperature yesterday: 30 °F (at 2:20 AM)
Average temperature yesterday: 34 °F

Past Weeks' High & Low Weather Summary

High63 °F (Nov 15, 2:20 PM)100% (Nov 15, 1:50 AM)30.36 "Hg (Nov 15, 1:50 AM)
Low19 °F (Nov 24, 4:50 AM)51% (Nov 19, 5:20 PM)29.45 "Hg (Nov 21, 12:50 PM)
Average41 °F88%30.05 "Hg
* Reported Nov 14 9:20 PM — Nov 29 9:50 PM, Bern, Weather by CustomWeather, © 2015

Note: Actual official high and low records may vary slightly from our data, if they occured in-between our weather recording intervals... More about our weather records


Bern weather history for previous 24 hours

Time TempWeatherWind HumidityBarometerVisibility
9:50 PM
Sun, Nov 29
46 °FPartly cloudy.2 mph76%30.36 "HgN/A
9:20 PM46 °FPassing clouds.9 mph82%30.36 "HgN/A
8:50 PM50 °FPartly cloudy.5 mph62%30.36 "HgN/A
8:20 PM50 °FPartly cloudy.8 mph62%30.33 "HgN/A
7:50 PM50 °FPassing clouds.8 mph62%30.33 "HgN/A
7:20 PM48 °FPassing clouds.3 mph71%30.33 "HgN/A
6:50 PM43 °FLight rain. Passing clouds.13 mph93%30.33 "HgN/A
6:20 PM46 °FOvercast.6 mph76%30.30 "HgN/A
5:50 PM48 °FOvercast.2 mph71%30.33 "HgN/A
5:20 PM48 °FSprinkles. Passing clouds.5 mph71%30.33 "HgN/A
4:50 PM48 °FMostly cloudy.3 mph71%30.33 "HgN/A
4:20 PM41 °FBroken clouds.3 mph93%30.30 "HgN/A
3:50 PM41 °FBroken clouds.1 mph93%30.30 "HgN/A
3:20 PM41 °FBroken clouds.2 mph93%30.30 "HgN/A
2:50 PM41 °FBroken clouds.1 mph93%30.30 "HgN/A
2:20 PM39 °FBroken clouds.2 mph100%30.27 "HgN/A
1:50 PM39 °FBroken clouds.No wind100%30.27 "HgN/A
1:20 PM39 °FLight rain. Broken clouds.1 mph93%30.27 "HgN/A
12:50 PM39 °FLight rain. More clouds than sun.2 mph93%30.27 "Hg6 mi
12:20 PM37 °FDrizzle. More clouds than sun.2 mph100%30.27 "Hg6 mi
11:50 AM37 °FDrizzle. More clouds than sun.2 mph100%30.30 "Hg6 mi
11:20 AM37 °FDrizzle. More clouds than sun.3 mph93%30.30 "Hg6 mi
10:20 AM36 °FLight rain. More clouds than sun.2 mph93%30.27 "Hg5 mi
9:50 AM34 °FLight snow. More clouds than sun.1 mph100%30.30 "Hg5 mi
9:20 AM34 °FLight snow. More clouds than sun.2 mph100%30.30 "Hg5 mi
8:50 AM32 °FLight snow. Low clouds.1 mph100%30.27 "Hg4 mi
8:20 AM32 °FLight snow. Low clouds.1 mph100%30.27 "HgN/A
7:50 AM32 °FLow clouds.1 mph100%30.27 "HgN/A
7:20 AM32 °FPassing clouds.1 mph100%30.24 "HgN/A
6:50 AM32 °FOvercast.1 mph100%30.24 "HgN/A
6:20 AM32 °FOvercast.1 mph100%30.24 "HgN/A
5:50 AM32 °FOvercast.1 mph100%30.24 "HgN/A
5:20 AM32 °FPartly cloudy.1 mph100%30.27 "HgN/A
4:50 AM32 °FPassing clouds.3 mph100%30.24 "HgN/A
4:20 AM32 °FPassing clouds.2 mph93%30.24 "HgN/A
3:50 AM32 °FPassing clouds.3 mph100%30.24 "HgN/A
3:20 AM32 °FPassing clouds.2 mph100%30.27 "HgN/A
2:50 AM32 °FPartly cloudy.1 mph93%30.27 "HgN/A
2:20 AM32 °FOvercast.2 mph93%30.27 "HgN/A
1:50 AM32 °FOvercast.1 mph93%30.27 "HgN/A
1:20 AM32 °FOvercast.2 mph93%30.24 "HgN/A
12:50 AM32 °FPartly cloudy.1 mph93%30.27 "HgN/A
12:20 AM30 °FPartly cloudy.5 mph100%30.27 "HgN/A
11:50 PM
Sat, Nov 28
32 °FPassing clouds.1 mph93%30.27 "HgN/A
11:20 PM30 °FClear.3 mph100%30.24 "HgN/A
Weather by CustomWeather, © 2015

See weather overviewHow to use our weather pages